15 daagse weersverwachting Ňlesund (NO)

  • Overzicht
  • Per uur
  • 15 dagen
  • Extra
  • Vergelijk
  • Kaarten
  • Dagkaart
  • Meer »
  • Info
  • Statistieken
  • Directe link
    Temp 6h Neerslag Wind  
 03:41     23:37    Daglengte: 19:56 Vandaag
08:00
14°
 
2
14:00
14°
 
6
20:00
13°
 
3
 03:41     23:37    Daglengte: 19:56 Morgen
02:00
12°
 
2
08:00
13°
1.6 mm
2
14:00
14°
 
7
warningclass
20:00
13°
 
8
 03:41     23:37    Daglengte: 19:56 Zaterdag 22 Jun
02:00
10°
1.3 mm
9
08:00
10°
5.8 mm
7
14:00
12°
6.6 mm
10
20:00
11°
 
8
 03:42     23:37    Daglengte: 19:55 Zondag 23 Jun
02:00
11°
 
7
Locatie info
Region: MÝre og Romsdal
Latitude: 62.4715°N
Longitude: 6.1729°E
3 masl
Postcode: 6003
Temp/Neerslag /Baro Onweer/Dauwpunt
    Temp Baro 1h Neerslag Dauwpunt Wind UV Bewolking  
 03:41     23:37    Daglengte: 19:56 Vandaag
04:00
13°
1004.2 hPa
22%
10.6°
1
Windvlaag: 1 km/h
71%
05:00
13°
1003.9 hPa
31%
10.5°
1
Windvlaag: 1.5 km/h
72%
06:00
13°
1003.4 hPa
31%
10.7°
1
Windvlaag: 2.5 km/h
65%
07:00
13°
1002.8 hPa
14%
10.8°
1
Windvlaag: 2.6 km/h
57%
08:00
14°
1002.7 hPa
14%
10.6°
2
Windvlaag: 2.8 km/h
38%
09:00
14°
1002.6 hPa
18%
10.2°
3
Windvlaag: 5.3 km/h
26%
10:00
14°
1002.8 hPa
21%
10.5°
5
Windvlaag: 7.3 km/h
22%
11:00
14°
1002.9 hPa
33%
10.5°
5
Windvlaag: 8.1 km/h
29%
12:00
14°
1003.2 hPa
35%
10.4°
5
Windvlaag: 8.5 km/h
30%
13:00
14°
1003.5 hPa
33%
10.1°
5
Windvlaag: 8.4 km/h
41%
14:00
14°
1003.8 hPa
33%
9.8°
6
Windvlaag: 8.5 km/h
35%
15:00
14°
1004.0 hPa
35%
9.6°
5
Windvlaag: 8 km/h
27%
16:00
14°
1004.2 hPa
34%
9.5°
5
Windvlaag: 7.5 km/h
29%
17:00
14°
1004.3 hPa
32%
9.7°
5
Windvlaag: 7 km/h
42%
18:00
13°
1004.3 hPa
34%
9.8°
4
Windvlaag: 6.8 km/h
51%
19:00
13°
1004.3 hPa
33%
9.7°
4
Windvlaag: 6.3 km/h
63%
20:00
13°
1004.5 hPa
34%
9.5°
3
Windvlaag: 5.7 km/h
63%
21:00
13°
1004.7 hPa
35%
9.5°
2
Windvlaag: 5.2 km/h
56%
22:00
13°
1004.7 hPa
34%
10.8°
2
Windvlaag: 4.3 km/h
50%
23:00
12°
1004.6 hPa
30%
10.8°
2
Windvlaag: 4.4 km/h
49%
 03:41     23:37    Daglengte: 19:56 Morgen
00:00
12°
1004.6 hPa
28%
10.8°
1
Windvlaag: 2.7 km/h
19%
01:00
12°
1004.8 hPa
67%
10.7°
1
Windvlaag: 2.2 km/h
48%
02:00
12°
1004.9 hPa
74%
10.8°
2
Windvlaag: 2.3 km/h
55%
03:00
12°
1005.2 hPa 0.6 mm
82%
10.5°
2
Windvlaag: 2.8 km/h
46%
04:00
11°
1005.3 hPa 0.6 mm
82%
10.2°
2
Windvlaag: 3.6 km/h
57%
05:00
12°
1005.4 hPa 0.5 mm
82%
9.5°
2
Windvlaag: 3.9 km/h
16%
06:00
12°
1005.5 hPa
76%
8.9°
4
Windvlaag: 7.5 km/h
9%
07:00
12°
1005.4 hPa
59%
8.8°
2
Windvlaag: 6.6 km/h
0%
08:00
13°
1005.5 hPa
23%
8.7°
2
Windvlaag: 5.5 km/h
1%
09:00
14°
1005.6 hPa
61%
8.4°
4
Windvlaag: 7.6 km/h
1%
10:00
14°
1005.8 hPa
69%
8.1°
4
Windvlaag: 8.1 km/h
1%
11:00
15°
1005.9 hPa
79%
8.2°
5
Windvlaag: 9 km/h
36%
12:00
15°
1006.2 hPa
79%
8.8°
5
Windvlaag: 9.1 km/h
69%
13:00
14°
1006.6 hPa
78%
9.7°
7
Windvlaag: 10 km/h
52%
14:00
14°
1006.8 hPa
78%
8.1°
7
Windvlaag: 10.2 km/h
52% warningclass
15:00
15°
1007.0 hPa
79%
8.1°
7
Windvlaag: 10.7 km/h
33%
16:00
15°
1007.2 hPa
77%
8.4°
7
Windvlaag: 11 km/h
27%
17:00
15°
1007.5 hPa
78%
8.3°
8
Windvlaag: 11.4 km/h
49%
18:00
14°
1007.8 hPa
77%
7.8°
9
Windvlaag: 12.2 km/h
34%
19:00
14°
1008.2 hPa
79%
8.6°
8
Windvlaag: 12.4 km/h
42%
20:00
13°
1008.6 hPa
82%
8.8°
8
Windvlaag: 12.6 km/h
45%
21:00
12°
1009.1 hPa
82%
8.3°
7
Windvlaag: 10.8 km/h
24%
22:00
12°
1009.5 hPa
72%
8.1°
7
Windvlaag: 11.8 km/h
15%
23:00
11°
1010.1 hPa
83%
9.1°
7
Windvlaag: 10.9 km/h
70%
 03:41     23:37    Daglengte: 19:56 Zaterdag 22 Jun
00:00
11°
1010.8 hPa 0.6 mm
47%
8.1°
8
Windvlaag: 12.6 km/h
63%
01:00
11°
1011.3 hPa
46%
8.0°
7
Windvlaag: 11.3 km/h
75%
02:00
10°
1011.7 hPa 0.8 mm
91%
8.2°
9
Windvlaag: 13.4 km/h
86%
03:00
10°
1012.2 hPa 0.9 mm
47%
8.8°
8
Windvlaag: 12 km/h
83%
04:00
10°
1012.6 hPa 0.9 mm
95%
7.2°
9
Windvlaag: 13.7 km/h
97%
05:00
10°
1013.2 hPa 0.8 mm
100%
6.6°
9
Windvlaag: 13.5 km/h
89%
06:00
10°
1013.7 hPa 1.1 mm
100%
6.1°
9
Windvlaag: 13.8 km/h
89%
07:00
10°
1014.2 hPa 1.2 mm
100%
6.1°
9
Windvlaag: 14.3 km/h
88%
08:00
10°
1014.8 hPa 1.0 mm
100%
8.2°
7
Windvlaag: 12.5 km/h
78%
09:00
10°
1015.4 hPa 0.5 mm
100%
7.1°
8
Windvlaag: 13.2 km/h
88%
10:00
11°
1015.8 hPa 1.0 mm
100%
7.4°
8
Windvlaag: 14.2 km/h
75%
11:00
11°
1016.1 hPa 1.2 mm
100%
6.6°
9
Windvlaag: 15.4 km/h
66%
12:00
12°
1016.5 hPa 1.3 mm
100%
6.8°
9
Windvlaag: 16.1 km/h
52%
13:00
12°
1016.8 hPa 1.3 mm
100%
7.0°
9
Windvlaag: 15.5 km/h
34%
14:00
12°
1017.5 hPa 1.2 mm
100%
9.0°
10
Windvlaag: 15.5 km/h
41%
15:00
11°
1017.4 hPa
100%
9.1°
10
Windvlaag: 19.1 km/h
56% warningclass
16:00
12°
1017.3 hPa
99%
9.0°
9
Windvlaag: 17.7 km/h
45% warningclass
17:00
12°
1017.1 hPa
90%
9.0°
9
Windvlaag: 18.1 km/h
67% warningclass
18:00
12°
1016.9 hPa
85%
9.0°
9
Windvlaag: 17.8 km/h
66% warningclass
19:00
12°
1016.8 hPa
75%
9.0°
9
Windvlaag: 18.1 km/h
57% warningclass
20:00
11°
1016.6 hPa
22%
8.9°
8
Windvlaag: 2.7 km/h
78%
21:00
11°
1016.9 hPa
21%
8.8°
8
Windvlaag: 19.7 km/h
74% warningclass
22:00
11°
1017.2 hPa
21%
8.6°
8
Windvlaag: 20 km/h
66% warningclass
23:00
11°
1017.5 hPa
21%
8.5°
7
Windvlaag: 18.5 km/h
82% warningclass
 03:42     23:37    Daglengte: 19:55 Zondag 23 Jun
00:00
11°
1017.8 hPa
21%
8.3°
7
Windvlaag: 18.1 km/h
94% warningclass
01:00
11°
1018.0 hPa
21%
8.2°
7
Windvlaag: 17.8 km/h
94% warningclass
02:00
11°
1018.2 hPa
32%
8.2°
7
Windvlaag: 2.7 km/h
98%
03:00
10°
1019.4 hPa   7.9°
7
Windvlaag: 0 km/h
99%
Temp/Neerslag /Baro Onweer/Dauwpunt
    Temp Baro Neerslag Dauwpunt Wind Bewolking  
 03:41     23:37    Daglengte: 19:56 Vandaag
05:00
13°
1003.9 hPa   10.5°
1
72%
08:00
14°
1002.7 hPa   10.6°
2
38%
11:00
14°
1002.9 hPa   10.5°
5
29%
14:00
14°
1003.8 hPa   9.8°
6
35%
17:00
14°
1004.3 hPa   9.7°
5
42%
20:00
13°
1004.5 hPa   9.5°
3
63%
23:00
12°
1004.6 hPa   10.8°
2
49%
 03:41     23:37    Daglengte: 19:56 Morgen
02:00
12°
1004.9 hPa   10.8°
2
55%
05:00
12°
1005.4 hPa 1.6 mm 9.5°
2
16%
08:00
13°
1005.5 hPa   8.7°
2
1%
11:00
15°
1005.9 hPa   8.2°
5
36%
14:00
14°
1006.8 hPa   8.1°
7
52% warningclass
17:00
15°
1007.5 hPa   8.3°
8
49%
20:00
13°
1008.6 hPa   8.8°
8
45%
23:00
11°
1010.1 hPa   9.1°
7
70%
 03:41     23:37    Daglengte: 19:56 Zaterdag 22 Jun
02:00
10°
1011.7 hPa 1.3 mm 8.2°
9
86%
05:00
10°
1013.2 hPa 2.5 mm 6.6°
9
89%
08:00
10°
1014.8 hPa 3.3 mm 8.2°
7
78%
11:00
11°
1016.1 hPa 2.8 mm 6.6°
9
66%
14:00
12°
1017.5 hPa 3.8 mm 9.0°
10
41%
17:00
12°
1017.1 hPa   9.0°
9
67% warningclass
20:00
11°
1016.6 hPa   8.9°
8
78%
23:00
11°
1017.5 hPa   8.5°
7
82% warningclass
 03:42     23:37    Daglengte: 19:55 Zondag 23 Jun
02:00
11°
1018.2 hPa   8.2°
7
98%
05:00
10°
1020.5 hPa 10.3 mm 8.0°
6
91%
08:00
10°
1021.2 hPa 10.3 mm 8.2°
6
91%
11:00
11°
1023.1 hPa 10.4 mm 8.2°
6
85%
14:00
12°
1024.9 hPa 10.4 mm 8.1°
7
78%
17:00
12°
1025.9 hPa 10.4 mm 7.9°
6
80%
20:00
11°
1026.8 hPa 10.4 mm 7.7°
5
82%
23:00
10°
1027.9 hPa 10.6 mm 7.7°
3
73%
 03:42     23:37    Daglengte: 19:55 Maandag 24 Jun
02:00
Voelt als: 8.9°
1028.9 hPa 10.9 mm 7.6°
2
65%
05:00
10°
Voelt als: 9.2°
1028.9 hPa 10.9 mm 7.5°
2
75%
08:00
11°
1029.0 hPa 10.9 mm 7.5°
2
86%
11:00
12°
1029.7 hPa 10.9 mm 7.8°
3
87%
14:00
13°
1030.4 hPa 11.0 mm 8.0°
4
89%
17:00
12°
1030.3 hPa 11.0 mm 7.8°
4
86%
20:00
12°
1030.1 hPa 11.0 mm 7.7°
5
84%
23:00
11°
1030.2 hPa 11.0 mm 7.6°
4
87%
 03:43     23:37    Daglengte: 19:54 Dinsdag 25 Jun
02:00
Voelt als: 7.8°
1030.2 hPa 11.0 mm 7.4°
3
90%
05:00
10°
1029.8 hPa 11.0 mm 7.8°
3
90%
08:00
11°
1029.4 hPa 11.0 mm 8.2°
3
90%
11:00
12°
1028.8 hPa 11.0 mm 9.3°
4
88%
14:00
14°
1028.1 hPa 11.0 mm 10.4°
4
86%
17:00
13°
1027.9 hPa 11.0 mm 9.9°
4
85%
20:00
13°
1027.6 hPa 11.0 mm 9.4°
4
83%
23:00
11°
1027.3 hPa 11.0 mm 9.0°
3
84%
 03:44     23:36    Daglengte: 19:52 Woensdag 26 Jun
02:00
10°
Voelt als: 9.4°
1026.9 hPa 11.0 mm 8.7°
2
84%
05:00
10°
1026.5 hPa 11.0 mm 8.7°
2
87%
08:00
11°
1026.0 hPa 11.0 mm 8.7°
2
90%
11:00
12°
1025.6 hPa 11.0 mm 8.7°
3
87%
14:00
13°
1025.3 hPa 11.0 mm 8.6°
4
85%
17:00
12°
1025.1 hPa 11.0 mm 8.3°
4
86%
20:00
12°
1024.8 hPa 11.0 mm 8.0°
3
87%
23:00
11°
1024.0 hPa 11.1 mm 8.0°
3
87%
 03:45     23:36    Daglengte: 19:51 Donderdag 27 Jun
02:00
10°
Voelt als: 8.5°
1023.1 hPa 22.2 mm 8.0°
2
87%
08:00
11°
1021.5 hPa 22.2 mm 8.1°
4
90%
14:00
12°
1020.0 hPa 22.2 mm 8.1°
5
90%
20:00
12°
1020.3 hPa 22.2 mm 7.8°
4
83%
 03:46     23:35    Daglengte: 19:49 Vrijdag 28 Jun
02:00
10°
Voelt als: 8.4°
1018.6 hPa 22.2 mm 7.8°
3
80%
08:00
11°
1017.1 hPa 22.2 mm 7.9°
3
90%
14:00
12°
1017.2 hPa 22.2 mm 7.6°
5
88%
20:00
11°
1017.8 hPa 22.3 mm 7.3°
4
87%
 03:47     23:34    Daglengte: 19:47 Zaterdag 29 Jun
02:00
10°
1017.6 hPa 22.5 mm 8.7°
5
1%
08:00
11°
1016.3 hPa 22.5 mm 8.7°
2
1%
14:00
11°
1015.6 hPa 22.5 mm 9.7°
3
1%
20:00
11°
1015.2 hPa 22.5 mm 9.5°
1
1%
 03:48     23:33    Daglengte: 19:45 Zondag 30 Jun
02:00
Voelt als: 7.6°
1012.5 hPa   6.3°
2
30%
08:00
12°
1010.8 hPa 0.1 mm 6.3°
3
34%
14:00
16°
1009.7 hPa 0.2 mm 6.7°
4
36%
20:00
14°
1009.3 hPa 0.5 mm 7.2°
4
41%
 03:49     23:33    Daglengte: 19:44 Maandag 01 Jul
02:00
10°
Voelt als: 9.0°
1009.4 hPa 0.4 mm 7.4°
2
39%
08:00
12°
1008.6 hPa 0.4 mm 7.3°
2
41%
14:00
15°
1008.1 hPa 0.4 mm 7.5°
4
36%
20:00
14°
1008.3 hPa 0.8 mm 7.6°
4
40%
 03:51     23:31    Daglengte: 19:40 Dinsdag 02 Jul
02:00
10°
Voelt als: 9.3°
1008.8 hPa 0.4 mm 7.5°
2
42%
08:00
12°
1008.4 hPa 0.4 mm 7.6°
2
46%
14:00
15°
1008.6 hPa 0.4 mm 7.4°
3
36%
20:00
14°
1009.1 hPa 0.3 mm 7.7°
4
36%
 03:52     23:30    Daglengte: 19:38 Woensdag 03 Jul
02:00
10°
Voelt als: 9.1°
1009.9 hPa 0.2 mm 7.9°
2
29%
08:00
12°
1009.9 hPa 0.3 mm 8.0°
2
32%
14:00
16°
1010.2 hPa 0.4 mm 8.2°
3
33%
20:00
14°
1011.0 hPa 0.7 mm 8.6°
4
39%
 03:54     23:29    Daglengte: 19:35 Donderdag 04 Jul
02:00
10°
1011.9 hPa 0.4 mm 8.5°
2
40%
08:00
13°
1011.8 hPa 0.2 mm 8.6°
2
35%
14:00
16°
1011.7 hPa 0.2 mm 8.7°
3
40%
20:00
15°
1012.0 hPa 0.5 mm 9.2°
3
40%
 03:56     23:28    Daglengte: 19:32 Vrijdag 05 Jul
02:00
11°
1012.6 hPa 0.3 mm 9.0°
1
43%
  CAPE Lifted Index Hail Supercell Tornado SRH 3km CL BTM PRES CL TOP PRES Swiss DWD icon SMHI TS
 03:41     23:37    Daglengte: 19:56 Vandaag
04:00 0 J/kg 3.9 K 0 % 0 % 0 % 0 m²/s² 0 0 4.35 3
05:00 0 J/kg 3.8 K 0 % 0 % 0 % 0 m²/s² 0 0 4.01 3
06:00 0 J/kg 3.6 K 0 % 0 % 0 % 0 m²/s² 0 0 3.78 3
07:00 0 J/kg 3.5 K 0 % 0 % 0 % 0 m²/s² 0 0 3.71 3
08:00 0 J/kg 3.6 K 0 % 0 % 0 % 0 m²/s² 0 0 3.9 3
09:00 0 J/kg 3.8 K 0 % 0 % 0 % 0 m²/s² 0 0 4.13 3
10:00 0 J/kg 3.4 K 0 % 0 % 0 % 0 m²/s² 0 0 3.73 3
11:00 0 J/kg 3.2 K 0 % 0 % 0 % 0 m²/s² 0 0 3.83 3
12:00 0 J/kg 3.4 K 0 % 0 % 0 % 0 m²/s² 0 0 4.45 61
13:00 0 J/kg 3.8 K 0 % 0 % 0 % 0 m²/s² 0 0 5.18 3
14:00 0 J/kg 4.0 K 0 % 0 % 0 % 0 m²/s² 0 0 5.71 3
15:00 0 J/kg 4.3 K 0 % 0 % 0 % 0 m²/s² 0 0 6.31 61
16:00 0 J/kg 4.4 K 0 % 0 % 0 % 0 m²/s² 0 0 7.61 3
17:00 0 J/kg 4.7 K 0 % 0 % 0 % 0 m²/s² 0 0 8.36 3
18:00 0 J/kg 5.1 K 0 % 0 % 0 % 0 m²/s² 0 0 9.45 61
19:00 0 J/kg 5.3 K 0 % 0 % 0 % 0 m²/s² 0 0 9.74 3
20:00 0 J/kg 5.2 K 0 % 0 % 0 % 0 m²/s² 0 0 10.12 61
21:00 0 J/kg 5.2 K 0 % 0 % 0 % 0 m²/s² 0 0 9.61 61
22:00 0 J/kg 4.5 K 0 % 0 % 0 % 0 m²/s² 0 0 7.41 61
23:00 8 J/kg 4.4 K 0 % 0 % 0 % 0 m²/s² 0 0 6.2 3
 03:41     23:37    Daglengte: 19:56 Morgen
00:00 23 J/kg 4.0 K 0 % 0 % 0 % 0 m²/s² 0 0 4.99 3
01:00 46 J/kg 4.0 K 0 % 0 % 0 % 0 m²/s² 0 0 4.84 3
02:00 73 J/kg 3.9 K 0 % 0 % 0 % 0 m²/s² 0 0 4.74 3
03:00 0 J/kg 5.2 K 0 % 0 % 0 % 0 m²/s² 0 0 8.83 80
04:00 1 J/kg 5.4 K 0 % 0 % 0 % 0 m²/s² 0 0 10.05 80
05:00 0 J/kg 4.9 K 0 % 0 % 0 % 0 m²/s² 0 0 8.89 80
06:00 0 J/kg 4.6 K 0 % 0 % 0 % 0 m²/s² 0 0 7.51 80
07:00 0 J/kg 2.6 K 0 % 0 % 0 % 0 m²/s² 0 0 4.85 2
08:00 138 J/kg 0.7 K 0 % 0 % 0 % 0 m²/s² 0 0 2.8 1
09:00 223 J/kg -0.2 K 0 % 0 % 0 % 0 m²/s² 0 0 2.11 0
10:00 199 J/kg -0.3 K 0 % 0 % 0 % 0 m²/s² 0 0 1.5 80
11:00 212 J/kg -0.4 K 0 % 0 % 0 % 0 m²/s² 0 0 0.86 80
12:00 245 J/kg -0.7 K 0 % 0 % 0 % 0 m²/s² 0 0 0.71 80
13:00 299 J/kg -1.1 K 0 % 0 % 0 % 0 m²/s² 0 0 0.58 80
14:00 179 J/kg -0.5 K 0 % 0 % 0 % 0 m²/s² 0 0 0.7 95
15:00 179 J/kg -0.3 K 0 % 0 % 0 % 0 m²/s² 0 0 1.38 80
16:00 171 J/kg -0.4 K 0 % 0 % 0 % 0 m²/s² 0 0 1.76 3
17:00 219 J/kg -0.8 K 0 % 0 % 0 % 0 m²/s² 0 0 0.94 3
18:00 202 J/kg -0.8 K 0 % 0 % 0 % 0 m²/s² 0 0 0.61 1
19:00 197 J/kg -1.0 K 0 % 0 % 0 % 0 m²/s² 0 0 0.92 2
20:00 78 J/kg -0.4 K 0 % 0 % 0 % 0 m²/s² 0 0 2.27 3
21:00 18 J/kg 1.1 K 0 % 0 % 0 % 0 m²/s² 0 0 3.68 2
22:00 64 J/kg 1.0 K 0 % 0 % 0 % 0 m²/s² 0 0 3.82 0
23:00 61 J/kg 1.5 K 0 % 0 % 0 % 0 m²/s² 0 0 3.12 1
 03:41     23:37    Daglengte: 19:56 Zaterdag 22 Jun
00:00 60 J/kg 2.2 K 0 % 0 % 0 % 0 m²/s² 0 0 2.71 2
01:00 50 J/kg 2.0 K 0 % 0 % 0 % 0 m²/s² 0 0 2.45 2
02:00 83 J/kg 1.6 K 0 % 0 % 0 % 0 m²/s² 0 0 1.99 2
03:00 99 J/kg 1.2 K 0 % 0 % 0 % 0 m²/s² 0 0 1.56 2
04:00 95 J/kg 1.3 K 0 % 0 % 0 % 0 m²/s² 0 0 1.66 3
05:00 56 J/kg 2.5 K 0 % 0 % 0 % 0 m²/s² 0 0 3.79 61
06:00 89 J/kg 2.0 K 0 % 0 % 0 % 0 m²/s² 0 0 3.08 61
07:00 125 J/kg 1.8 K 0 % 0 % 0 % 0 m²/s² 0 0 3.18 61
08:00 154 J/kg 1.7 K 0 % 0 % 0 % 0 m²/s² 0 0 3.35 61
09:00 158 J/kg 1.9 K 0 % 0 % 0 % 0 m²/s² 0 0 3.73 3
10:00 187 J/kg 1.7 K 0 % 0 % 0 % 0 m²/s² 0 0 3.53 80
11:00 135 J/kg 2.3 K 0 % 0 % 0 % 0 m²/s² 0 0 3.59 80
12:00 157 J/kg 1.9 K 0 % 0 % 0 % 0 m²/s² 0 0 3.46 80
13:00 119 J/kg 2.1 K 0 % 0 % 0 % 0 m²/s² 0 0 3.81 80
14:00 116 J/kg 2.0 K 0 % 0 % 0 % 0 m²/s² 0 0 3.77 80
15:00 138 J/kg 1.9 K 0 % 0 % 0 % 0 m²/s² 0 0 3.79 1
16:00 100 J/kg 2.9 K 0 % 0 % 0 % 0 m²/s² 0 0 5.18 2
17:00 96 J/kg 3.1 K 0 % 0 % 0 % 0 m²/s² 0 0 5.68 3
18:00 134 J/kg 3.0 K 0 % 0 % 0 % 0 m²/s² 0 0 5.7 2
19:00 156 J/kg 3.0 K 0 % 0 % 0 % 0 m²/s² 0 0 5.64 1
20:00 163 J/kg 3.1 K 0 % 0 % 0 % 0 m²/s² 0 0 5.47 2
21:00 140 J/kg 3.6 K 0 % 0 % 0 % 0 m²/s² 0 0 6.39 2
22:00 87 J/kg 4.2 K 0 % 0 % 0 % 0 m²/s² 0 0 7.26 0
23:00 71 J/kg 4.7 K 0 % 0 % 0 % 0 m²/s² 0 0 7.91 3
 03:42     23:37    Daglengte: 19:55 Zondag 23 Jun
00:00 50 J/kg 5.2 K 0 % 0 % 0 % 0 m²/s² 0 0 8.59 3
01:00 15 J/kg 5.4 K 0 % 0 % 0 % 0 m²/s² 0 0 6.81 3
02:00 8 J/kg 4.6 K 0 % 0 % 0 % 0 m²/s² 0 0 4.87 3
03:00 0 J/kg 0.0 K 0 % 0 % 0 % 0 m²/s² 0 0 13.83
Temp Baro Wind Neerslag
  EWN Forecast EWN WRFDA DWD ICON FMI HIRLAM MET Norway GFS
 03:41     23:37    Daglengte: 19:56 Vandaag
05:00 12.7° 1003.9 hPa 1.0 m/s 0.0 mm 11.6° 1001.7 hPa 1.4 m/s 0.0 mm 12.4° 1004.6 hPa 0.6 m/s -1.8 mm 11.7° 1004.2 hPa 0.7 m/s 0.0 mm 12.9° 1003.6 hPa 0.8 m/s 0.0 mm 11.6° 1004.0 hPa 1.7 m/s
08:00 13.8° 1002.7 hPa 1.5 m/s 0.0 mm 13.0° 1000.6 hPa 3.0 m/s 0.0 mm 13.1° 1002.9 hPa 0.5 m/s 0.0 mm 12.4° 1002.8 hPa 1.7 m/s 0.0 mm 15.5° 1002.3 hPa 0.7 m/s 0.0 mm 11.5° 1003.1 hPa 4.0 m/s
11:00 13.8° 1002.9 hPa 5.1 m/s 0.0 mm 13.0° 1000.6 hPa 5.0 m/s 0.0 mm 13.2° 1003.1 hPa 2.9 m/s 0.0 mm 12.7° 1003.2 hPa 3.8 m/s 0.0 mm 15.7° 1002.7 hPa 7.1 m/s 0.0 mm 11.1° 1002.9 hPa 4.1 m/s
14:00 13.7° 1003.8 hPa 5.6 m/s 0.0 mm 13.1° 1001.6 hPa 5.9 m/s 0.0 mm 12.6° 1003.8 hPa 3.8 m/s 0.1 mm 13.4° 1004.9 hPa 6.2 m/s 0.0 mm 16.0° 1003.5 hPa 6.2 m/s 0.0 mm 11.1° 1003.3 hPa 4.0 m/s
17:00 13.7° 1004.3 hPa 4.6 m/s 0.0 mm 12.6° 1002.2 hPa 6.1 m/s 0.0 mm 12.3° 1004.3 hPa 3.0 m/s 0.1 mm 13.5° 1006.4 hPa 5.3 m/s 0.0 mm 16.1° 1003.9 hPa 4.8 m/s 0.0 mm 11.0° 1003.0 hPa 1.8 m/s
20:00 13.0° 1004.5 hPa 2.7 m/s 0.0 mm 11.9° 1002.2 hPa 4.5 m/s 0.0 mm 12.2° 1004.5 hPa 1.1 m/s 0.2 mm 13.3° 1006.4 hPa 2.6 m/s 0.0 mm 14.4° 1004.0 hPa 3.8 m/s 0.0 mm 10.9° 1003.5 hPa 1.5 m/s
23:00 12.4° 1004.6 hPa 2.0 m/s 0.0 mm 10.4° 1002.3 hPa 2.6 m/s 0.0 mm 11.9° 1004.9 hPa 0.9 m/s 0.2 mm 12.4° 1006.9 hPa 0.4 m/s 0.0 mm 12.8° 1004.4 hPa 2.3 m/s 0.0 mm 11.0° 1004.2 hPa 1.2 m/s
 03:41     23:37    Daglengte: 19:56 Morgen
02:00 11.7° 1004.9 hPa 1.8 m/s 0.0 mm 11.6° 1002.8 hPa 4.1 m/s 0.5 mm 11.7° 1005.1 hPa 0.8 m/s 0.2 mm 11.8° 1007.0 hPa 1.1 m/s 0.0 mm 11.0° 1004.5 hPa 1.6 m/s 0.0 mm 10.8° 1005.3 hPa 5.8 m/s
05:00 11.6° 1005.4 hPa 2.2 m/s 1.6 mm 10.1° 1003.1 hPa 5.4 m/s 1.3 mm 11.4° 1005.8 hPa 1.3 m/s 2.3 mm 11.4° 1007.0 hPa 1.3 m/s 0.0 mm 11.7° 1005.0 hPa 1.7 m/s 0.0 mm 10.7° 1005.7 hPa 6.0 m/s
08:00 13.1° 1005.5 hPa 2.3 m/s 0.0 mm 12.9° 1002.5 hPa 6.9 m/s 1.3 mm 12.2° 1005.8 hPa 0.8 m/s 0.3 mm 12.9° 1006.7 hPa 1.0 m/s 0.0 mm 13.2° 1005.6 hPa 2.7 m/s 0.0 mm 11.3° 1005.6 hPa 1.4 m/s
11:00 14.9° 1005.9 hPa 4.7 m/s 0.0 mm 13.8° 1003.0 hPa 6.8 m/s 1.3 mm 13.1° 1007.0 hPa 2.7 m/s 1.7 mm 14.5° 1007.1 hPa 1.6 m/s 0.0 mm 15.7° 1005.8 hPa 5.1 m/s 0.0 mm 12.0° 1006.2 hPa 1.2 m/s
14:00 14.4° 1006.8 hPa 6.8 m/s 0.0 mm 13.8° 1003.2 hPa 7.2 m/s 1.9 mm 14.0° 1007.3 hPa 4.6 m/s 1.7 mm 14.4° 1008.0 hPa 5.1 m/s 0.0 mm 15.8° 1006.8 hPa 7.1 m/s 0.0 mm 12.0° 1006.8 hPa 5.1 m/s
17:00 14.8° 1007.5 hPa 7.7 m/s 0.0 mm 13.5° 1003.8 hPa 9.0 m/s 2.3 mm 13.4° 1008.7 hPa 8.0 m/s 0.8 mm 14.4° 1008.4 hPa 3.4 m/s 0.0 mm 16.3° 1007.6 hPa 7.9 m/s 0.0 mm 11.2° 1007.7 hPa 8.4 m/s
20:00 12.7° 1008.6 hPa 7.9 m/s 0.0 mm 12.2° 1004.5 hPa 9.5 m/s 2.4 mm 12.1° 1009.6 hPa 6.8 m/s 0.2 mm 12.9° 1010.0 hPa 6.6 m/s 0.0 mm 12.6° 1008.7 hPa 7.8 m/s 0.0 mm 11.3° 1008.5 hPa 9.6 m/s
23:00 11.4° 1010.1 hPa 7.0 m/s 0.0 mm 11.1° 1005.7 hPa 9.7 m/s 2.4 mm 11.6° 1011.0 hPa 5.2 m/s 0.1 mm 11.2° 1010.5 hPa 6.6 m/s 0.3 mm 10.7° 1010.7 hPa 7.7 m/s
 03:41     23:37    Daglengte: 19:56 Zaterdag 22 Jun
02:00 10.5° 1011.7 hPa 8.6 m/s 1.3 mm 10.3° 1006.1 hPa 11.4 m/s 3.0 mm 10.8° 1012.4 hPa 5.9 m/s 0.0 mm 10.0° 1012.3 hPa 8.4 m/s 1.0 mm 9.9° 1011.7 hPa 9.4 m/s
05:00 10.1° 1013.2 hPa 8.5 m/s 2.5 mm 10.0° 1007.6 hPa 11.5 m/s 5.1 mm 9.9° 1014.1 hPa 6.2 m/s 0.6 mm 9.6° 1013.7 hPa 8.0 m/s 1.0 mm 10.0° 1012.8 hPa 11.8 m/s
08:00 10.3° 1014.8 hPa 7.2 m/s 3.3 mm 10.8° 1009.2 hPa 11.9 m/s 6.3 mm 10.5° 1015.7 hPa 4.7 m/s 2.1 mm 9.1° 1015.4 hPa 6.5 m/s 0.4 mm 10.0° 1013.9 hPa 11.6 m/s
11:00 11.0° 1016.1 hPa 9.3 m/s 2.8 mm 10.5° 1011.4 hPa 11.5 m/s 7.3 mm 11.7° 1017.2 hPa 7.6 m/s 0.9 mm 10.9° 1016.5 hPa 9.3 m/s 0.0 mm 10.5° 1016.3 hPa 13.8 m/s
14:00 11.5° 1017.5 hPa 9.8 m/s 3.8 mm 12.7° 1012.7 hPa 13.1 m/s 9.8 mm 12.5° 1018.8 hPa 9.3 m/s 1.0 mm 10.5° 1017.9 hPa 9.4 m/s 1.1 mm 10.9° 1018.5 hPa 13.6 m/s
17:00 11.8° 1017.1 hPa 9.3 m/s 0.0 mm 12.8° 1013.7 hPa 13.0 m/s 10.7 mm 13.3° 1019.3 hPa 9.1 m/s 0.2 mm 10.7° 1017.1 hPa 8.8 m/s 10.9° 1020.6 hPa 12.9 m/s
20:00 11.5° 1016.6 hPa 8.5 m/s 0.0 mm 11.8° 1014.4 hPa 11.6 m/s 10.7 mm 13.0° 1019.5 hPa 7.7 m/s 0.1 mm 10.8° 1016.3 hPa 8.2 m/s 11.1° 1021.5 hPa 10.3 m/s
23:00 11.0° 1017.5 hPa 7.2 m/s 0.0 mm 11.2° 1014.6 hPa 12.1 m/s 10.8 mm 12.6° 1019.4 hPa 2.4 m/s 0.0 mm 10.4° 1017.5 hPa 7.5 m/s 10.8° 1023.0 hPa 7.2 m/s
 03:42     23:37    Daglengte: 19:55 Zondag 23 Jun
02:00 10.5° 1018.2 hPa 6.7 m/s 0.0 mm 10.4° 1013.9 hPa 11.6 m/s 11.8 mm 12.9° 1019.1 hPa 2.4 m/s 0.0 mm 9.9° 1018.6 hPa 6.9 m/s 10.5° 1023.7 hPa 5.6 m/s
05:00 10.1° 1020.5 hPa 6.3 m/s 10.3 mm 10.1° 1020.1 hPa 6.4 m/s 10.2° 1024.5 hPa 5.9 m/s 10.3 mm
08:00 10.3° 1021.2 hPa 6.0 m/s 10.3 mm 10.2° 1020.9 hPa 6.1 m/s 10.8° 1025.0 hPa 5.4 m/s 10.3 mm
11:00 11.3° 1023.1 hPa 6.3 m/s 10.4 mm 11.2° 1022.8 hPa 6.3 m/s 11.8° 1025.5 hPa 5.9 m/s 10.4 mm
14:00 12.2° 1024.9 hPa 6.6 m/s 10.4 mm 12.2° 1024.8 hPa 6.5 m/s 11.8° 1026.0 hPa 8.1 m/s 10.4 mm
17:00 11.6° 1025.9 hPa 5.9 m/s 10.4 mm 11.6° 1025.8 hPa 5.7 m/s 11.6° 1026.5 hPa 8.6 m/s 10.4 mm
20:00 11.0° 1026.8 hPa 4.9 m/s 10.4 mm 11.0° 1026.8 hPa 4.8 m/s 11.3° 1027.3 hPa 5.7 m/s 10.4 mm
23:00 10.2° 1027.9 hPa 3.2 m/s 10.6 mm 10.2° 1027.8 hPa 3.2 m/s 11.0° 1028.8 hPa 3.2 m/s 10.6 mm
 03:42     23:37    Daglengte: 19:55 Maandag 24 Jun
02:00 9.4° 1028.9 hPa 1.6 m/s 10.9 mm 9.3° 1028.8 hPa 1.6 m/s 10.5° 1029.6 hPa 1.1 m/s 10.9 mm
05:00 9.9° 1028.9 hPa 1.9 m/s 10.9 mm 9.9° 1028.8 hPa 1.9 m/s 10.2° 1030.0 hPa 0.9 m/s 10.9 mm
08:00 10.5° 1029.0 hPa 2.2 m/s 10.9 mm 10.5° 1028.9 hPa 2.3 m/s 10.6° 1030.3 hPa 1.4 m/s 10.9 mm
11:00 11.5° 1029.7 hPa 3.3 m/s 10.9 mm 11.6° 1029.7 hPa 3.2 m/s 10.4° 1030.5 hPa 3.8 m/s 10.9 mm
14:00 12.5° 1030.4 hPa 4.2 m/s 11.0 mm 12.7° 1030.4 hPa 4.2 m/s 10.6° 1030.7 hPa 4.0 m/s 11.0 mm
17:00 12.1° 1030.3 hPa 4.4 m/s 11.0 mm 12.2° 1030.2 hPa 4.3 m/s 10.7° 1030.8 hPa 5.0 m/s 11.0 mm
20:00 11.6° 1030.1 hPa 4.6 m/s 11.0 mm 11.7° 1030.1 hPa 4.4 m/s 10.6° 1030.5 hPa 6.6 m/s 11.0 mm
23:00 10.5° 1030.2 hPa 3.9 m/s 11.0 mm 10.6° 1030.2 hPa 3.7 m/s 10.3° 1031.0 hPa 7.0 m/s 11.0 mm
 03:43     23:37    Daglengte: 19:54 Dinsdag 25 Jun
02:00 9.4° 1030.2 hPa 3.1 m/s 11.0 mm 9.4° 1030.2 hPa 2.9 m/s 10.0° 1030.6 hPa 5.6 m/s 11.0 mm
05:00 10.0° 1029.8 hPa 3.1 m/s 11.0 mm 10.1° 1029.8 hPa 3.0 m/s 9.8° 1029.6 hPa 4.8 m/s 11.0 mm
08:00 10.6° 1029.4 hPa 3.1 m/s 11.0 mm 10.7° 1029.4 hPa 3.0 m/s 9.9° 1029.2 hPa 4.2 m/s 11.0 mm
11:00 12.4° 1028.8 hPa 3.6 m/s 11.0 mm 12.6° 1028.7 hPa 3.5 m/s 10.1° 1029.5 hPa 4.9 m/s 11.0 mm
14:00 14.2° 1028.1 hPa 4.0 m/s 11.0 mm 14.6° 1028.0 hPa 3.9 m/s 10.4° 1029.7 hPa 5.1 m/s 11.0 mm
17:00 13.4° 1027.9 hPa 3.8 m/s 11.0 mm 13.7° 1027.7 hPa 3.8 m/s 10.4° 1029.5 hPa 4.8 m/s 11.0 mm
20:00 12.6° 1027.6 hPa 3.6 m/s 11.0 mm 12.8° 1027.4 hPa 3.6 m/s 10.3° 1029.3 hPa 4.0 m/s 11.0 mm
23:00 11.3° 1027.3 hPa 2.7 m/s 11.0 mm 11.4° 1027.1 hPa 2.6 m/s 9.8° 1029.2 hPa 3.2 m/s 11.0 mm
 03:44     23:36    Daglengte: 19:52 Woensdag 26 Jun
02:00 9.9° 1026.9 hPa 1.7 m/s 11.0 mm 10.0° 1026.8 hPa 1.7 m/s 9.4° 1028.3 hPa 2.1 m/s 11.0 mm
05:00 10.5° 1026.5 hPa 2.0 m/s 11.0 mm 10.6° 1026.3 hPa 2.1 m/s 9.2° 1027.7 hPa 0.8 m/s 11.0 mm
08:00 11.1° 1026.0 hPa 2.4 m/s 11.0 mm 11.2° 1025.9 hPa 2.6 m/s 9.7° 1026.5 hPa 0.8 m/s 11.0 mm
11:00 12.0° 1025.6 hPa 3.3 m/s 11.0 mm 12.1° 1025.6 hPa 3.4 m/s 10.0° 1025.8 hPa 1.9 m/s 11.0 mm
14:00 12.9° 1025.3 hPa 4.1 m/s 11.0 mm 13.1° 1025.3 hPa 4.2 m/s 10.7° 1025.5 hPa 2.9 m/s 11.0 mm
17:00 12.3° 1025.1 hPa 3.6 m/s 11.0 mm 12.4° 1025.0 hPa 3.6 m/s 10.8° 1025.1 hPa 3.3 m/s 11.0 mm
20:00 11.6° 1024.8 hPa 2.9 m/s 11.0 mm 11.7° 1024.8 hPa 3.0 m/s 10.2° 1025.2 hPa 2.4 m/s 11.0 mm
23:00 10.7° 1024.0 hPa 2.7 m/s 11.1 mm 10.8° 1023.8 hPa 2.6 m/s 9.9° 1025.7 hPa 2.8 m/s 11.1 mm
 03:45     23:36    Daglengte: 19:51 Donderdag 27 Jun
02:00 9.7° 1023.1 hPa 2.5 m/s 11.1 mm 9.8° 1022.9 hPa 2.3 m/s 8.9° 1025.0 hPa 4.3 m/s 11.1 mm
08:00 10.9° 1021.5 hPa 3.5 m/s 11.1 mm 11.1° 1021.3 hPa 3.4 m/s 8.9° 1023.6 hPa 4.9 m/s 11.1 mm
14:00 12.4° 1020.0 hPa 4.8 m/s 11.1 mm 12.7° 1019.8 hPa 4.7 m/s 9.7° 1021.8 hPa 5.8 m/s 11.1 mm
20:00 11.6° 1020.3 hPa 4.3 m/s 11.1 mm 11.7° 1020.4 hPa 4.3 m/s 10.2° 1019.7 hPa 4.2 m/s 11.1 mm
 03:46     23:35    Daglengte: 19:49 Vrijdag 28 Jun
02:00 9.7° 1018.6 hPa 2.7 m/s 11.1 mm 9.7° 1018.6 hPa 2.7 m/s 10.0° 1018.3 hPa 2.2 m/s 11.1 mm
08:00 10.8° 1017.1 hPa 3.5 m/s 11.1 mm 10.8° 1017.1 hPa 3.7 m/s 10.5° 1017.0 hPa 1.1 m/s 11.1 mm
14:00 12.0° 1017.2 hPa 4.8 m/s 11.1 mm 12.2° 1017.2 hPa 5.0 m/s 10.2° 1017.0 hPa 2.2 m/s 11.1 mm
20:00 10.8° 1017.8 hPa 4.1 m/s 11.2 mm 10.9° 1017.8 hPa 4.2 m/s 10.2° 1017.4 hPa 2.6 m/s 11.2 mm
 03:47     23:34    Daglengte: 19:47 Zaterdag 29 Jun
02:00 10.2° 1017.6 hPa 4.5 m/s 11.2 mm 10.2° 1017.6 hPa 4.5 m/s 11.2 mm
08:00 10.8° 1016.3 hPa 2.4 m/s 11.2 mm 10.8° 1016.3 hPa 2.4 m/s 11.2 mm
14:00 11.3° 1015.6 hPa 3.3 m/s 11.2 mm 11.3° 1015.6 hPa 3.3 m/s 11.2 mm
20:00 11.1° 1015.2 hPa 0.8 m/s 11.2 mm 11.1° 1015.2 hPa 0.8 m/s 11.2 mm
 03:48     23:33    Daglengte: 19:45 Zondag 30 Jun
02:00 8.9° 1012.5 hPa 2.3 m/s 0.0 mm
08:00 11.7° 1010.8 hPa 2.6 m/s 0.1 mm
14:00 15.6° 1009.7 hPa 3.7 m/s 0.2 mm
20:00 13.8° 1009.3 hPa 3.9 m/s 0.5 mm
 03:49     23:33    Daglengte: 19:44 Maandag 01 Jul
02:00 9.8° 1009.4 hPa 2.0 m/s 0.4 mm
08:00 11.9° 1008.6 hPa 2.2 m/s 0.4 mm
14:00 15.4° 1008.1 hPa 3.8 m/s 0.4 mm
20:00 13.6° 1008.3 hPa 3.7 m/s 0.8 mm
 03:51     23:31    Daglengte: 19:40 Dinsdag 02 Jul
02:00 10.0° 1008.8 hPa 1.9 m/s 0.4 mm
08:00 11.7° 1008.4 hPa 1.6 m/s 0.4 mm
14:00 15.0° 1008.6 hPa 3.1 m/s 0.4 mm
20:00 13.6° 1009.1 hPa 3.5 m/s 0.3 mm
 03:52     23:30    Daglengte: 19:38 Woensdag 03 Jul
02:00 9.8° 1009.9 hPa 1.9 m/s 0.2 mm
08:00 12.0° 1009.9 hPa 1.9 m/s 0.3 mm
14:00 15.6° 1010.2 hPa 3.4 m/s 0.4 mm
20:00 13.9° 1011.0 hPa 3.6 m/s 0.7 mm
 03:54     23:29    Daglengte: 19:35 Donderdag 04 Jul
02:00 10.2° 1011.9 hPa 2.0 m/s 0.4 mm
08:00 12.7° 1011.8 hPa 2.0 m/s 0.2 mm
14:00 16.4° 1011.7 hPa 3.2 m/s 0.2 mm
20:00 14.9° 1012.0 hPa 3.2 m/s 0.5 mm
 03:56     23:28    Daglengte: 19:32 Vrijdag 05 Jul
02:00 11.3° 1012.6 hPa 1.1 m/s 0.3 mm
FMI Hirlam - 7.5 km EWN WRFDA - 12 km DWD ICON - 7 km GFS - 25 km Basiskaart






























































Updatetijd (Europe/Amsterdam) Resolutie Lengte Stap
FMI Hirlam 01:15, 07:15, 13:15, 19:15 7.5 km 49h 1h
EWN WRFDA 22:15, 04:15, 10:15, 16:15 12 km 73h 1h
DWD ICON 23:45, 05:45, 11:45, 17:45 7 km 75h 1h
GFS 02:30, 08:30, 14:30, 20:30 25 km 237h 3h
30+ mm
25-30 mm
20-25 mm
15-20 mm
10-15 mm
6-10 mm
4-6 mm
2-4 mm
1-2 mm
0.5-1 mm
0.2-0.5 mm
0.1-0.2 mm
30+ mm
25-30 mm
20-25 mm
15-20 mm
10-15 mm
6-10 mm
4-6 mm
2-4 mm
1-2 mm
0.5-1 mm
0.2-0.5 mm
0.1-0.2 mm
Sneeuwval
Natte sneeuw
Hagel
Vorst
30+ mm
25-30 mm
20-25 mm
15-20 mm
10-15 mm
6-10 mm
4-6 mm
2-4 mm
1-2 mm
0.5-1 mm
0.2-0.5 mm
0.1-0.2 mm
Sneeuwval
Natte sneeuw
Hagel
Vorst
Onweer
50 mm
40 mm
30 mm
26 mm
22 mm
18 mm
14 mm
10 mm
9 mm
8 mm
7 mm
6 mm
5 mm
4.5 mm
4 mm
3.5 mm
3 mm
2.5 mm
2 mm
1.5 mm
1 mm
0.8 mm
0.6 mm
0.4 mm
0.2 mm
0.05 mm
35°
30°
25°
20°
15°
10°
-5°
-10°
-15°
-20°
-25°
-30°
-35°
120> km/h
105 km/h
90 km/h
75 km/h
60 km/h
50 km/h
40 km/h
30 km/h
20 km/h
10 km/h
0 km/h
2600 J/kg
2400 J/kg
2200 J/kg
2000 J/kg
1800 J/kg
1600 J/kg
1400 J/kg
1200 J/kg
1000 J/kg
800 J/kg
600 J/kg
400 J/kg
200 J/kg
70 dBZ
65 dBZ
60 dBZ
55 dBZ
50 dBZ
45 dBZ
40 dBZ
35 dBZ
30 dBZ
25 dBZ
20 dBZ
15 dBZ
10 dBZ
5 dBZ
-1 K
-2 K
-3 K
-4 K
-5 K
-6 K
-7 K
-8 K
-9 K
950 m²/s²
900 m²/s²
850 m²/s²
800 m²/s²
750 m²/s²
700 m²/s²
650 m²/s²
600 m²/s²
550 m²/s²
500 m²/s²
450 m²/s²
400 m²/s²
350 m²/s²
300 m²/s²
250 m²/s²
200 m²/s²
150 m²/s²
100 m²/s²
46 m/s
44 m/s
42 m/s
40 m/s
38 m/s
36 m/s
34 m/s
32 m/s
30 m/s
28 m/s
26 m/s
24 m/s
22 m/s
20 m/s
16 m/s
12 m/s
8 m/s
4 m/s
30 m/s
28 m/s
26 m/s
24 m/s
22 m/s
20 m/s
18 m/s
16 m/s
14 m/s
12 m/s
10 m/s
8 m/s
6 m/s
4 m/s
2 m/s
3.0
2.8
2.6
2.4
2.2
2.0
1.8
1.6
1.4
1.2
1.0
0.8
0.6
0.4
0.2
15
14
13
12
11
10
9
8
7
6
5
4
3
2
1
90%
80%
70%
60%
50%
40%
30%
20%
10%
42
40